Regional Weather Roundup
Issued by NWS Albany, NY

Home | Current Version | Previous Version | Graphics & Text | Print | Product List | Glossary Off
Versions: 1 2 3 4 5 6 7 8 9 10 11 12 13 14 15 16 17 18 19 20 21 22 23 24 25 26 27

000
ASUS41 KALY 282010
RWRALY

NEW YORK STATE HOURLY WEATHER ROUNDUP
NATIONAL WEATHER SERVICE ALBANY NY
400 PM EDT WED JUN 28 2017

NOTE: "FAIR" INDICATES FEW OR NO CLOUDS BELOW 12,000 FEET WITH NO
SIGNIFICANT WEATHER AND/OR NO OBSTRUCTIONS TO VISIBILITY.

NYZ032-033-038>043-046>054-057>066-NYZ062>081-082-084-282100-
EAST


CITY           SKY/WX    TMP DP  RH WIND       PRES   REMARKS
ALBANY         MOSUNNY   76  48  37 W16G25    30.05F
GLENS FALLS    PTSUNNY   71  51  49 E8        30.02F
POUGHKEEPSIE   SUNNY     78  47  33 W12       30.05F
NEWBURGH       MOSUNNY   77  50  38 W12       30.09F
MONTGOMERY     MOSUNNY   78  45  30 NW9G18    30.07F
WHITE PLAINS   MOSUNNY   77  48  35 NW14G20   30.08F
ISLIP          MOSUNNY   77  48  35 W7G18     30.08F
NEW YORK CITY  MOSUNNY   79  49  34 NW14G20   30.09S
CENTRAL PARK   MOSUNNY   76  49  38 CALM      30.12S
$$

NYZ005>009-017-018-044>046-055-056-282100-
CENTRAL


CITY           SKY/WX    TMP DP  RH WIND       PRES   REMARKS
FULTON         SUNNY     75  52  44 W10       30.07F
SYRACUSE       PTSUNNY   73  53  49 W5        30.06F
ROME           MOSUNNY   74  48  39 W15       30.07S
ELMIRA         MOSUNNY   77  53  43 W10       30.09F
BINGHAMTON     PTSUNNY   71  49  45 W12       30.12F
MONTICELLO     SUNNY     72  46  40 W13       30.13S
$$

NYZ026>034-041>043-087-282100-
NORTH


CITY           SKY/WX    TMP DP  RH WIND       PRES   REMARKS
WATERTOWN      SUNNY     72  49  44 SW12      30.05F
FORT DRUM      NOT AVBL
OGDENSBURG     FAIR      74  56  52 SW14G23   30.00F
MASSENA        MOSUNNY   73  55  53 SW16G24   30.00F
SARANAC LAKE   MOSUNNY   67  48  50 W8G18     30.03F
PLATTSBURGH    MOSUNNY   74  48  39 NW10      29.98F
$$

NYZ001>004-010>016-019>021-085-282100-
WEST


CITY           SKY/WX    TMP DP  RH WIND       PRES   REMARKS
NIAGARA FALLS  SUNNY     75  51  43 SW15      30.06F
BUFFALO        PTSUNNY   71  46  40 SW15G23   30.08F
DUNKIRK        SUNNY     70  49  47 W13       30.11F
JAMESTOWN      MOSUNNY   70  46  43 SW9G16    30.13S
WELLSVILLE     MOSUNNY   72  48  42 W12       30.15F
ROCHESTER      MOSUNNY   75  50  41 W14       30.08S
PENN YAN       MOSUNNY   75  46  35 SW9       30.09F
$$

             KEY
       WCI = WIND CHILL INDEX
       VSB = VISIBILITY
       HX  = HEAT INDEX
$$




USA.gov is the U.S. government's official web portal to all federal, state and local government web resources and services.